Edinburgh Airport, United Kingdom

3:07 AM BST on April 25, 2018 (GMT +0100)
Edinburgh Airport

Weather History for EGPH - November, 2013

Change the Weather History Date:

Thursday, November 28, 2013

  Actual Average Record
Temperature  
Mean Temperature 40 °F -  
Max Temperature 48 °F 44 °F 55 °F (1999)
Min Temperature 32 °F 34 °F 24 °F (2010)
Degree Days  
Heating Degree Days 25    
Moisture  
Dew Point 39 °F    
Average Humidity 94    
Maximum Humidity 100    
Minimum Humidity 87    
Precipitation  
Precipitation 0.00 in 0.08 in - ()
Sea Level Pressure  
Sea Level Pressure 30.52 in    
Wind  
Wind Speed 4 mph ()    
Max Wind Speed 15 mph    
Max Gust Speed -    
Visibility 6.1 miles    
Events      
Averages and records for this station are not official NWS values.
T = Trace of Precipitation, MM = Missing Value Source: Averaged Metar Reports

Daily Weather History Graph

Daily Weather History Graph

Search for Another Location

Airport or City:

Astronomy

Nov. 28, 2013 Rise Set
Actual Time 8:14 AM GMT 3:47 PM GMT
Civil Twilight 7:30 AM GMT 4:32 PM GMT
Nautical Twilight 6:42 AM GMT 5:19 PM GMT
Astronomical Twilight 5:57 AM GMT 6:04 PM GMT
Moon 2:10 AM GMT (11/28) 1:35 PM GMT (11/28)
Length of Visible Light 9h 02m
Length of Day
7h 32m
Waning Crescent, 24% of the Moon is Illuminated
Nov 28
Waning Crescent
Dec 3
New
Dec 9
First Quarter
Dec 17
Full
Dec 25
Last Quarter

Hourly Weather History & Observations

Time (GMT) Temp. Windchill Dew Point Humidity Pressure Visibility Wind Dir Wind Speed Gust Speed Precip Events Conditions
12:20 AM 48.2 °F - 46.4 °F 93% 30.51 in - WSW 8.1 mph - N/A   Clear
12:50 AM 44.6 °F 40.2 °F 42.8 °F 93% 30.51 in 6.2 mi WSW 8.1 mph - N/A   Partly Cloudy
1:20 AM 42.8 °F 39.3 °F 42.8 °F 100% 30.51 in 6.2 mi WSW 5.8 mph - N/A   Partly Cloudy
1:50 AM 42.8 °F 38.6 °F 41.0 °F 93% 30.51 in - WSW 6.9 mph - N/A   Clear
2:20 AM 44.6 °F 41.4 °F 42.8 °F 93% 30.51 in - West 5.8 mph - N/A   Clear
2:50 AM 42.8 °F 39.3 °F 41.0 °F 93% 30.51 in - West 5.8 mph - N/A   Clear
3:20 AM 42.8 °F 40.1 °F 41.0 °F 93% 30.54 in - West 4.6 mph - N/A   Clear
3:50 AM 39.2 °F 35.9 °F 37.4 °F 93% 30.54 in - WSW 4.6 mph - N/A   Clear
4:20 AM 37.4 °F - 35.6 °F 93% 30.54 in - WSW 2.3 mph - N/A   Clear
4:50 AM 35.6 °F - 33.8 °F 93% 30.54 in - Calm Calm - N/A   Clear
5:20 AM 33.8 °F - 33.8 °F 100% 30.54 in - East 2.3 mph - N/A   Clear
5:50 AM 32.0 °F - 32.0 °F 100% 30.57 in - Variable 2.3 mph - N/A   Clear
6:20 AM 33.8 °F - 33.8 °F 100% 30.57 in - Calm Calm - N/A   Clear
6:50 AM 32.0 °F - 32.0 °F 100% 30.57 in - Calm Calm - N/A   Clear
7:20 AM 33.8 °F 30.8 °F 33.8 °F 100% 30.57 in 6.2 mi SW 3.5 mph - N/A   Scattered Clouds
7:50 AM 33.8 °F - 33.8 °F 100% 30.57 in 6.2 mi Variable 2.3 mph - N/A   Scattered Clouds
8:20 AM 33.8 °F 30.8 °F 33.8 °F 100% 30.60 in 6.2 mi Variable 3.5 mph - N/A   Scattered Clouds
8:50 AM 33.8 °F - 33.8 °F 100% 30.60 in 6.2 mi WSW 2.3 mph - N/A   Scattered Clouds
9:20 AM 35.6 °F 31.7 °F 35.6 °F 100% 30.60 in 6.2 mi WSW 4.6 mph - N/A   Scattered Clouds
9:50 AM 37.4 °F - 37.4 °F 100% 30.60 in 6.2 mi West 2.3 mph - N/A   Scattered Clouds
10:20 AM 39.2 °F - 39.2 °F 100% 30.60 in 6.2 mi Calm Calm - N/A   Scattered Clouds
10:50 AM 39.2 °F - 37.4 °F 93% 30.60 in 6.2 mi Calm Calm - N/A   Partly Cloudy
11:20 AM 37.4 °F - 37.4 °F 100% 30.60 in 6.2 mi Variable 2.3 mph - N/A   Mostly Cloudy
11:50 AM 41.0 °F - 39.2 °F 93% 30.57 in 6.2 mi Calm Calm - N/A   Scattered Clouds
12:20 PM 42.8 °F - 41.0 °F 93% 30.57 in 6.2 mi Calm Calm - N/A   Scattered Clouds
12:50 PM 42.8 °F - 41.0 °F 93% 30.57 in 6.2 mi NNW 2.3 mph - N/A   Scattered Clouds
1:20 PM 44.6 °F - 42.8 °F 93% 30.54 in 6.2 mi Calm Calm - N/A   Partly Cloudy
1:50 PM 42.8 °F - 42.8 °F 100% 30.54 in 6.2 mi NNW 2.3 mph - N/A   Partly Cloudy
2:20 PM 42.8 °F - 41.0 °F 93% 30.54 in 6.2 mi Variable 2.3 mph - N/A   Scattered Clouds
2:50 PM 42.8 °F 41.1 °F 41.0 °F 93% 30.54 in 6.2 mi West 3.5 mph - N/A   Scattered Clouds
3:20 PM 42.8 °F 40.1 °F 41.0 °F 93% 30.51 in 6.2 mi West 4.6 mph - N/A   Scattered Clouds
3:50 PM 42.8 °F 41.1 °F 39.2 °F 87% 30.51 in 6.2 mi West 3.5 mph - N/A   Partly Cloudy
4:20 PM 41.0 °F - 39.2 °F 93% 30.51 in 6.2 mi Calm Calm - N/A   Partly Cloudy
4:50 PM 39.2 °F - 39.2 °F 100% 30.51 in 6.2 mi Calm Calm - N/A   Partly Cloudy
5:20 PM 39.2 °F - 39.2 °F 100% 30.51 in - West 2.3 mph - N/A   Clear
5:50 PM 41.0 °F 39.0 °F 39.2 °F 93% 30.51 in - West 3.5 mph - N/A   Clear
6:20 PM 41.0 °F - 39.2 °F 93% 30.51 in - WNW 2.3 mph - N/A   Clear
6:50 PM 41.0 °F 39.0 °F 39.2 °F 93% 30.48 in 6.2 mi Variable 3.5 mph - N/A   Partly Cloudy
7:20 PM 41.0 °F 37.1 °F 39.2 °F 93% 30.48 in 6.2 mi West 5.8 mph - N/A   Partly Cloudy
7:50 PM 41.0 °F 36.4 °F 39.2 °F 93% 30.45 in 6.2 mi WSW 6.9 mph - N/A   Partly Cloudy
8:20 PM 42.8 °F 38.0 °F 39.2 °F 87% 30.45 in 6.2 mi WSW 8.1 mph - N/A   Partly Cloudy
8:50 PM 42.8 °F 37.5 °F 39.2 °F 87% 30.45 in 6.2 mi WSW 9.2 mph - N/A   Partly Cloudy
9:20 PM 42.8 °F 38.0 °F 39.2 °F 87% 30.42 in 6.2 mi WSW 8.1 mph - N/A   Partly Cloudy
9:50 PM 44.6 °F 40.2 °F 41.0 °F 87% 30.42 in 6.2 mi WSW 8.1 mph - N/A   Scattered Clouds
10:20 PM 44.6 °F 43.1 °F 41.0 °F 87% 30.39 in 6.2 mi Variable 3.5 mph - N/A   Mostly Cloudy
10:50 PM 44.6 °F 39.2 °F 41.0 °F 87% 30.36 in 6.2 mi WSW 10.4 mph - N/A   Overcast
11:20 PM 46.4 °F 40.1 °F 42.8 °F 87% 30.33 in 6.2 mi SW 15.0 mph - N/A   Overcast
11:50 PM 46.4 °F 40.7 °F 44.6 °F 93% 30.33 in 4.3 mi SW 12.7 mph - N/A   Light Drizzle